Simultaneous Nadir Overpasses (SNOs) Predictions

Prediction of SNOs between GOES-15 and NPP Satellite Orbit:

Table of predicted SNOs for the next 14.0 days since TLE Epoch: 12/31/2011
Index Date Time (GOES-15) GOES-15 Lat,Lon NPP Lat,Lon Distance(km) Time Diff (sec)
1 12/31/2011 22:11:23 0.04,-134.76 0.81,-131.44 379.80 80
2 01/02/2012 10:30:28 -0.04,-134.81 0.39,-136.69 215.32 80
3 01/03/2012 10:14:21 -0.04,-134.81 -0.63,-132.16 302.26 80
4 01/04/2012 22:36:14 0.04,-134.78 -0.56,-137.45 305.31 80
5 01/05/2012 22:14:48 0.03,-134.77 0.46,-132.92 211.65 80
6 01/07/2012 10:36:32 -0.04,-134.80 0.71,-138.18 385.03 80
7 01/08/2012 10:20:25 -0.03,-134.79 -0.27,-133.63 131.78 80
8 01/09/2012 22:42:18 0.03,-134.75 -0.91,-138.93 476.42 80
9 01/10/2012 22:20:51
